Location: Caltech
(34.1382°N, 118.1253°W)
Time: 09:26:30
(UTC-07:00)

Cosmos 1484 Rocket - Visible Passes

Search period start: 23 May 2015 00:00
Search period end: 02 June 2015 00:00
Orbit: 512 x 567 km, 97.4° (Epoch: 23 May)

Date Brightness Start Highest point End Pass type
(mag) Time Alt. Az. Time Alt. Az. Time Alt. Az.
23 May 5.6 20:55:47 10° SW 20:58:29 17° W 21:01:01 10° NW visible
24 May 5.5 20:47:50 10° SW 20:50:55 20° W 20:53:55 10° NW visible
25 May 5.1 20:40:00 10° SSW 20:43:23 25° W 20:46:43 10° NW visible
26 May 4.8 20:32:13 10° SSW 20:35:51 31° W 20:39:26 10° NW visible
27 May 4.4 20:24:32 10° SSW 20:28:20 38° W 20:32:06 10° NNW visible
